Station Historical Data
Daily Summary for November 25, 2017 Units:  English    Metric   Both
« Previous Day
Next Day »
Daily Weekly Monthly Yearly Custom
  High: Low: Average:
Temperature: 51.9 °F 35.9 °F 46.1 °F
Dew Point: 43.2 °F 26.2 °F 35.1 °F
Humidity: 89% 40% 68%
Wind Speed: 17.0mph 0.0mph 5.1mph
Wind Gust: 22.0mph - -
Wind- - WSW
Pressure: 29.91 in 29.54 in -
Precipitation: 0.00 in    
Historical Graphs
 
 
Tabular Data for November 25, 2017
Time Temperature Dew Point Pressure Wind Wind Speed Wind Gust Humidity Rainfall Rate (Hourly)
00:04 49.6 °F 26.2 °F 29.62 in SSW 6.0 mph 16.0 mph 40% 0.00 in
00:09 49.6 °F 26.2 °F 29.62 in South 4.0 mph 10.0 mph 40% 0.00 in
00:14 49.6 °F 26.2 °F 29.62 in SSW 6.0 mph 12.0 mph 40% 0.00 in
00:19 49.7 °F 26.3 °F 29.62 in SSW 6.0 mph 15.0 mph 40% 0.00 in
00:24 49.7 °F 26.3 °F 29.61 in SSW 7.0 mph 15.0 mph 40% 0.00 in
00:29 49.7 °F 26.3 °F 29.61 in SSW 6.0 mph 16.0 mph 40% 0.00 in
00:34 49.7 °F 26.3 °F 29.61 in SSW 6.0 mph 16.0 mph 40% 0.00 in
00:39 49.8 °F 26.4 °F 29.61 in SSW 7.0 mph 14.0 mph 40% 0.00 in
00:44 49.8 °F 26.4 °F 29.60 in SSW 8.0 mph 14.0 mph 40% 0.00 in
00:49 49.6 °F 26.8 °F 29.60 in SSW 7.0 mph 13.0 mph 41% 0.00 in
00:54 49.6 °F 26.2 °F 29.60 in SSW 6.0 mph 15.0 mph 40% 0.00 in
00:59 49.6 °F 26.2 °F 29.60 in SSW 6.0 mph 15.0 mph 40% 0.00 in
01:04 49.6 °F 26.8 °F 29.60 in SSW 4.0 mph 15.0 mph 41% 0.00 in
01:09 49.6 °F 26.2 °F 29.60 in South 6.0 mph 13.0 mph 40% 0.00 in
01:14 49.5 °F 26.7 °F 29.60 in South 3.0 mph 12.0 mph 41% 0.00 in
01:19 49.5 °F 26.7 °F 29.60 in SW 12.0 mph 16.0 mph 41% 0.00 in
01:24 49.5 °F 26.7 °F 29.60 in SW 7.0 mph 15.0 mph 41% 0.00 in
01:29 49.4 °F 26.7 °F 29.59 in SSW 7.0 mph 15.0 mph 41% 0.00 in
01:34 49.1 °F 26.4 °F 29.59 in SSW 6.0 mph 13.0 mph 41% 0.00 in
01:39 49.1 °F 26.4 °F 29.59 in SSW 5.0 mph 14.0 mph 41% 0.00 in
01:44 48.9 °F 26.8 °F 29.59 in SSW 5.0 mph 14.0 mph 42% 0.00 in
01:49 48.9 °F 26.2 °F 29.59 in SSW 5.0 mph 11.0 mph 41% 0.00 in
01:54 49.0 °F 26.3 °F 29.58 in South 2.0 mph 13.0 mph 41% 0.00 in
01:59 49.0 °F 26.9 °F 29.58 in SSW 6.0 mph 13.0 mph 42% 0.00 in
02:04 49.1 °F 26.4 °F 29.58 in SSW 6.0 mph 12.0 mph 41% 0.00 in
02:09 49.1 °F 26.4 °F 29.59 in SSW 6.0 mph 10.0 mph 41% 0.00 in
02:14 49.2 °F 26.5 °F 29.59 in South 8.0 mph 14.0 mph 41% 0.00 in
02:19 49.3 °F 26.6 °F 29.59 in South 7.0 mph 11.0 mph 41% 0.00 in
02:24 49.5 °F 26.7 °F 29.59 in South 6.0 mph 15.0 mph 41% 0.00 in
02:29 49.9 °F 26.5 °F 29.59 in SSW 7.0 mph 15.0 mph 40% 0.00 in
02:34 49.9 °F 27.1 °F 29.59 in SSW 7.0 mph 15.0 mph 41% 0.00 in
02:39 50.0 °F 26.6 °F 29.59 in SSW 6.0 mph 13.0 mph 40% 0.00 in
02:44 49.9 °F 27.1 °F 29.59 in SSW 6.0 mph 12.0 mph 41% 0.00 in
02:49 49.6 °F 26.8 °F 29.59 in South 7.0 mph 12.0 mph 41% 0.00 in
02:54 49.6 °F 26.8 °F 29.59 in SSW 4.0 mph 10.0 mph 41% 0.00 in
02:59 49.5 °F 27.3 °F 29.59 in SSW 6.0 mph 15.0 mph 42% 0.00 in
03:04 49.2 °F 27.1 °F 29.59 in SSW 6.0 mph 15.0 mph 42% 0.00 in
03:09 49.1 °F 27.0 °F 29.59 in SW 2.0 mph 10.0 mph 42% 0.00 in
03:14 49.0 °F 26.9 °F 29.59 in SSE 2.0 mph 9.0 mph 42% 0.00 in
03:19 48.9 °F 26.8 °F 29.59 in SW 5.0 mph 8.0 mph 42% 0.00 in
03:24 48.8 °F 27.3 °F 29.58 in South 4.0 mph 10.0 mph 43% 0.00 in
03:29 48.6 °F 27.1 °F 29.58 in SSW 4.0 mph 11.0 mph 43% 0.00 in
03:34 48.5 °F 27.0 °F 29.58 in SSW 5.0 mph 8.0 mph 43% 0.00 in
03:39 48.4 °F 26.9 °F 29.58 in SSW 4.0 mph 9.0 mph 43% 0.00 in
03:44 48.3 °F 26.8 °F 29.57 in SSW 4.0 mph 11.0 mph 43% 0.00 in
03:49 48.2 °F 27.3 °F 29.57 in SSW 4.0 mph 7.0 mph 44% 0.00 in
03:54 48.3 °F 27.4 °F 29.57 in SSW 2.0 mph 7.0 mph 44% 0.00 in
03:59 48.2 °F 27.3 °F 29.57 in SSW 4.0 mph 7.0 mph 44% 0.00 in
04:04 48.2 °F 27.3 °F 29.57 in SSW 4.0 mph 7.0 mph 44% 0.00 in
04:09 48.2 °F 27.3 °F 29.56 in SSW 3.0 mph 8.0 mph 44% 0.00 in
04:14 48.2 °F 27.3 °F 29.56 in South 2.0 mph 8.0 mph 44% 0.00 in
04:19 48.3 °F 27.4 °F 29.56 in South 8.0 mph 11.0 mph 44% 0.00 in
04:24 48.5 °F 27.6 °F 29.56 in SW 2.0 mph 11.0 mph 44% 0.00 in
04:29 48.5 °F 27.6 °F 29.56 in SSW 3.0 mph 9.0 mph 44% 0.00 in
04:34 48.6 °F 27.6 °F 29.56 in SSW 4.0 mph 9.0 mph 44% 0.00 in
04:39 48.6 °F 27.6 °F 29.56 in SSW 4.0 mph 8.0 mph 44% 0.00 in
04:44 48.8 °F 27.8 °F 29.56 in SSW 4.0 mph 8.0 mph 44% 0.00 in
04:49 49.0 °F 28.0 °F 29.56 in SW 3.0 mph 9.0 mph 44% 0.00 in
04:54 49.2 °F 28.2 °F 29.56 in SW 3.0 mph 9.0 mph 44% 0.00 in
04:59 49.2 °F 28.7 °F 29.56 in South 4.0 mph 7.0 mph 45% 0.00 in
05:04 49.3 °F 28.8 °F 29.56 in SSW 4.0 mph 9.0 mph 45% 0.00 in
05:09 49.2 °F 28.7 °F 29.56 in SSW 4.0 mph 9.0 mph 45% 0.00 in
05:14 49.1 °F 29.2 °F 29.55 in South 7.0 mph 8.0 mph 46% 0.00 in
05:19 49.2 °F 29.3 °F 29.55 in South 3.0 mph 8.0 mph 46% 0.00 in
05:29 49.4 °F 30.0 °F 29.55 in SW 4.0 mph 10.0 mph 47% 0.00 in
05:34 49.6 °F 29.6 °F 29.55 in SSW 4.0 mph 10.0 mph 46% 0.00 in
05:39 49.9 °F 30.5 °F 29.55 in SSW 4.0 mph 12.0 mph 47% 0.00 in
05:44 50.2 °F 31.2 °F 29.55 in SW 5.0 mph 12.0 mph 48% 0.00 in
05:49 50.3 °F 31.3 °F 29.55 in SW 7.0 mph 16.0 mph 48% 0.00 in
05:54 50.6 °F 32.6 °F 29.55 in SW 6.0 mph 16.0 mph 50% 0.00 in
05:59 50.8 °F 32.8 °F 29.55 in SW 7.0 mph 12.0 mph 50% 0.00 in
06:04 50.9 °F 32.9 °F 29.54 in South 4.0 mph 11.0 mph 50% 0.00 in
06:09 51.0 °F 33.0 °F 29.54 in SW 6.0 mph 13.0 mph 50% 0.00 in
06:14 51.2 °F 32.7 °F 29.54 in SW 8.0 mph 13.0 mph 49% 0.00 in
06:19 51.2 °F 32.7 °F 29.54 in SW 11.0 mph 16.0 mph 49% 0.00 in
06:24 51.5 °F 33.0 °F 29.55 in South 4.0 mph 14.0 mph 49% 0.00 in
06:29 51.5 °F 32.4 °F 29.55 in South 3.0 mph 15.0 mph 48% 0.00 in
06:34 51.5 °F 32.4 °F 29.55 in WSW 8.0 mph 16.0 mph 48% 0.00 in
06:39 51.4 °F 32.3 °F 29.55 in SW 7.0 mph 16.0 mph 48% 0.00 in
06:44 51.5 °F 33.0 °F 29.56 in SW 8.0 mph 17.0 mph 49% 0.00 in
06:49 51.5 °F 33.0 °F 29.56 in WSW 5.0 mph 16.0 mph 49% 0.00 in
06:54 51.6 °F 33.6 °F 29.56 in SW 8.0 mph 20.0 mph 50% 0.00 in
06:59 51.8 °F 33.7 °F 29.56 in SW 7.0 mph 14.0 mph 50% 0.00 in
07:04 51.8 °F 33.7 °F 29.56 in SW 5.0 mph 21.0 mph 50% 0.00 in
07:09 51.9 °F 34.3 °F 29.57 in SW 10.0 mph 21.0 mph 51% 0.00 in
07:14 51.9 °F 35.8 °F 29.57 in SW 9.0 mph 17.0 mph 54% 0.00 in
07:19 51.5 °F 37.6 °F 29.58 in SW 8.0 mph 16.0 mph 59% 0.00 in
07:24 50.6 °F 38.9 °F 29.58 in WSW 10.0 mph 15.0 mph 64% 0.01 in
07:29 49.7 °F 39.6 °F 29.58 in West 13.0 mph 16.0 mph 68% 0.01 in
07:34 49.1 °F 39.7 °F 29.58 in WSW 8.0 mph 18.0 mph 70% 0.01 in
07:39 48.6 °F 40.0 °F 29.57 in WSW 9.0 mph 18.0 mph 72% 0.01 in
07:44 48.5 °F 39.9 °F 29.57 in WSW 8.0 mph 17.0 mph 72% 0.01 in
07:49 48.5 °F 39.9 °F 29.57 in WSW 10.0 mph 21.0 mph 72% 0.01 in
07:54 48.7 °F 40.1 °F 29.57 in SW 10.0 mph 18.0 mph 72% 0.01 in
07:59 48.8 °F 39.8 °F 29.57 in SW 7.0 mph 18.0 mph 71% 0.01 in
08:04 48.9 °F 40.3 °F 29.58 in SW 7.0 mph 13.0 mph 72% 0.01 in
08:09 49.0 °F 40.4 °F 29.58 in SW 14.0 mph 18.0 mph 72% 0.01 in
08:14 49.0 °F 40.7 °F 29.58 in WSW 8.0 mph 18.0 mph 73% 0.01 in
08:19 49.0 °F 40.7 °F 29.59 in SW 9.0 mph 18.0 mph 73% 0.01 in
08:24 49.2 °F 40.9 °F 29.59 in SW 9.0 mph 22.0 mph 73% 0.00 in
08:29 49.4 °F 41.1 °F 29.59 in West 10.0 mph 21.0 mph 73% 0.00 in
08:34 49.4 °F 41.5 °F 29.59 in WSW 9.0 mph 22.0 mph 74% 0.00 in
08:39 49.2 °F 41.6 °F 29.59 in West 10.0 mph 19.0 mph 75% 0.00 in
08:44 48.9 °F 41.3 °F 29.59 in WSW 8.0 mph 19.0 mph 75% 0.00 in
08:49 48.6 °F 41.0 °F 29.60 in WSW 17.0 mph 17.0 mph 75% 0.00 in
08:54 48.3 °F 41.1 °F 29.60 in WSW 11.0 mph 19.0 mph 76% 0.00 in
08:59 48.1 °F 41.2 °F 29.60 in SSW 6.0 mph 17.0 mph 77% 0.00 in
09:04 47.9 °F 41.4 °F 29.61 in West 9.0 mph 12.0 mph 78% 0.00 in
09:09 47.8 °F 41.3 °F 29.61 in WSW 8.0 mph 16.0 mph 78% 0.00 in
09:14 47.6 °F 41.4 °F 29.61 in WSW 8.0 mph 16.0 mph 79% 0.00 in
09:19 47.5 °F 41.6 °F 29.61 in WSW 9.0 mph 17.0 mph 80% 0.00 in
09:24 47.5 °F 41.6 °F 29.62 in WSW 9.0 mph 17.0 mph 80% 0.00 in
09:29 47.4 °F 41.9 °F 29.61 in WSW 8.0 mph 16.0 mph 81% 0.00 in
09:34 47.4 °F 41.9 °F 29.61 in SW 4.0 mph 14.0 mph 81% 0.00 in
09:39 47.4 °F 41.9 °F 29.61 in West 7.0 mph 18.0 mph 81% 0.00 in
09:44 47.5 °F 42.0 °F 29.61 in WSW 10.0 mph 13.0 mph 81% 0.00 in
09:49 47.6 °F 42.1 °F 29.61 in SW 5.0 mph 10.0 mph 81% 0.00 in
09:54 47.5 °F 42.3 °F 29.61 in SSW 7.0 mph 12.0 mph 82% 0.00 in
09:59 47.6 °F 42.4 °F 29.61 in SSW 3.0 mph 12.0 mph 82% 0.00 in
10:04 47.8 °F 42.6 °F 29.61 in WSW 6.0 mph 10.0 mph 82% 0.00 in
10:09 47.8 °F 42.6 °F 29.62 in WSW 5.0 mph 10.0 mph 82% 0.00 in
10:14 47.8 °F 42.6 °F 29.62 in WSW 6.0 mph 15.0 mph 82% 0.00 in
10:19 47.8 °F 42.3 °F 29.62 in WSW 7.0 mph 15.0 mph 81% 0.00 in
10:24 47.8 °F 41.9 °F 29.62 in WSW 7.0 mph 15.0 mph 80% 0.00 in
10:29 47.9 °F 41.7 °F 29.62 in WSW 6.0 mph 15.0 mph 79% 0.00 in
10:34 47.9 °F 41.4 °F 29.62 in WSW 4.0 mph 13.0 mph 78% 0.00 in
10:39 47.9 °F 41.7 °F 29.63 in West 6.0 mph 13.0 mph 79% 0.00 in
10:44 47.6 °F 41.7 °F 29.63 in West 5.0 mph 14.0 mph 80% 0.00 in
10:49 47.3 °F 41.8 °F 29.63 in West 6.0 mph 12.0 mph 81% 0.01 in
10:54 47.0 °F 41.5 °F 29.64 in WNW 4.0 mph 14.0 mph 81% 0.01 in
10:59 46.7 °F 41.5 °F 29.64 in West 2.0 mph 12.0 mph 82% 0.01 in
11:04 46.6 °F 41.7 °F 29.64 in WSW 4.0 mph 12.0 mph 83% 0.01 in
11:09 46.3 °F 41.7 °F 29.64 in West 6.0 mph 14.0 mph 84% 0.01 in
11:14 46.1 °F 41.8 °F 29.64 in West 6.0 mph 14.0 mph 85% 0.01 in
11:19 46.0 °F 41.7 °F 29.64 in West 6.0 mph 12.0 mph 85% 0.02 in
11:24 45.9 °F 41.9 °F 29.64 in West 6.0 mph 12.0 mph 86% 0.02 in
11:29 45.8 °F 41.9 °F 29.64 in West 6.0 mph 11.0 mph 86% 0.02 in
11:34 45.7 °F 42.1 °F 29.64 in WSW 5.0 mph 8.0 mph 87% 0.03 in
11:39 45.6 °F 42.0 °F 29.64 in West 3.0 mph 9.0 mph 87% 0.03 in
11:44 45.5 °F 41.9 °F 29.64 in WSW 5.0 mph 10.0 mph 87% 0.03 in
11:49 45.5 °F 41.9 °F 29.65 in West 5.0 mph 9.0 mph 87% 0.02 in
11:54 45.5 °F 42.2 °F 29.64 in West 4.0 mph 8.0 mph 88% 0.02 in
11:59 45.5 °F 42.2 °F 29.64 in West 4.0 mph 9.0 mph 88% 0.03 in
12:04 45.7 °F 42.3 °F 29.65 in West 4.0 mph 11.0 mph 88% 0.03 in
12:09 45.6 °F 42.5 °F 29.65 in WSW 4.0 mph 11.0 mph 89% 0.03 in
12:14 45.7 °F 42.6 °F 29.65 in West 4.0 mph 7.0 mph 89% 0.03 in
12:19 45.8 °F 42.7 °F 29.65 in West 3.0 mph 7.0 mph 89% 0.02 in
12:24 45.8 °F 42.7 °F 29.65 in WSW 3.0 mph 5.0 mph 89% 0.02 in
12:29 45.8 °F 42.7 °F 29.65 in West 4.0 mph 9.0 mph 89% 0.03 in
12:39 45.7 °F 42.6 °F 29.66 in WSW 2.0 mph 6.0 mph 89% 0.02 in
12:44 45.7 °F 42.6 °F 29.66 in WSW 3.0 mph 8.0 mph 89% 0.02 in
12:49 45.7 °F 42.6 °F 29.66 in WSW 4.0 mph 8.0 mph 89% 0.02 in
12:54 45.9 °F 42.8 °F 29.66 in WSW 3.0 mph 8.0 mph 89% 0.03 in
12:59 46.1 °F 43.0 °F 29.66 in West 3.0 mph 4.0 mph 89% 0.02 in
13:04 46.2 °F 43.1 °F 29.66 in WNW 4.0 mph 5.0 mph 89% 0.02 in
13:09 46.3 °F 43.2 °F 29.66 in West 3.0 mph 4.0 mph 89% 0.02 in
13:14 46.2 °F 43.1 °F 29.67 in West 2.0 mph 5.0 mph 89% 0.03 in
13:19 46.0 °F 42.9 °F 29.67 in West 3.0 mph 7.0 mph 89% 0.03 in
13:24 46.0 °F 42.9 °F 29.67 in WSW 3.0 mph 7.0 mph 89% 0.03 in
13:29 46.1 °F 43.0 °F 29.67 in West 3.0 mph 6.0 mph 89% 0.02 in
13:34 46.1 °F 42.7 °F 29.67 in West 2.0 mph 8.0 mph 88% 0.02 in
13:39 46.1 °F 42.7 °F 29.68 in West 2.0 mph 7.0 mph 88% 0.02 in
13:44 45.9 °F 42.5 °F 29.68 in WSW 4.0 mph 7.0 mph 88% 0.02 in
13:49 46.0 °F 42.6 °F 29.68 in WSW 3.0 mph 7.0 mph 88% 0.02 in
13:54 46.0 °F 42.6 °F 29.68 in WSW 3.0 mph 7.0 mph 88% 0.02 in
13:59 46.0 °F 42.6 °F 29.68 in WSW 3.0 mph 7.0 mph 88% 0.02 in
14:04 46.0 °F 42.6 °F 29.68 in WSW 3.0 mph 6.0 mph 88% 0.02 in
14:09 45.8 °F 42.4 °F 29.68 in West 1.0 mph 7.0 mph 88% 0.02 in
14:14 45.8 °F 42.4 °F 29.68 in WSW 3.0 mph 6.0 mph 88% 0.01 in
14:19 45.7 °F 42.3 °F 29.68 in WSW 2.0 mph 6.0 mph 88% 0.01 in
14:24 45.6 °F 42.3 °F 29.68 in WSW 2.0 mph 6.0 mph 88% 0.01 in
14:29 45.6 °F 42.5 °F 29.68 in WSW 3.0 mph 6.0 mph 89% 0.01 in
14:34 45.5 °F 42.4 °F 29.69 in SW 2.0 mph 6.0 mph 89% 0.01 in
14:39 45.4 °F 42.3 °F 29.69 in WSW 6.0 mph 6.0 mph 89% 0.01 in
14:49 45.6 °F 42.5 °F 29.69 in WSW 2.0 mph 6.0 mph 89% 0.01 in
14:54 45.7 °F 42.6 °F 29.69 in WSW 2.0 mph 4.0 mph 89% 0.00 in
14:59 45.6 °F 42.3 °F 29.69 in SW 2.0 mph 4.0 mph 88% 0.00 in
15:04 45.7 °F 42.3 °F 29.70 in Calm   4.0 mph 88% 0.00 in
15:09 45.6 °F 42.3 °F 29.70 in Calm   4.0 mph 88% 0.00 in
15:14 45.7 °F 42.3 °F 29.70 in West 1.0 mph 4.0 mph 88% 0.00 in
15:19 45.7 °F 42.3 °F 29.70 in Calm   4.0 mph 88% 0.00 in
15:24 45.7 °F 42.3 °F 29.70 in West 2.0 mph 6.0 mph 88% 0.00 in
15:29 45.5 °F 42.2 °F 29.70 in West 3.0 mph 7.0 mph 88% 0.00 in
15:34 45.5 °F 41.9 °F 29.71 in West 3.0 mph 7.0 mph 87% 0.00 in
15:39 45.5 °F 41.9 °F 29.71 in West 7.0 mph 7.0 mph 87% 0.00 in
15:44 45.3 °F 41.1 °F 29.71 in North 2.0 mph 9.0 mph 85% 0.00 in
15:49 45.2 °F 40.3 °F 29.72 in NW 3.0 mph 9.0 mph 83% 0.00 in
15:54 45.2 °F 40.0 °F 29.72 in NW 4.0 mph 9.0 mph 82% 0.00 in
15:59 45.2 °F 39.7 °F 29.72 in NW 4.0 mph 9.0 mph 81% 0.00 in
16:04 45.2 °F 39.4 °F 29.73 in WNW 5.0 mph 9.0 mph 80% 0.00 in
16:09 45.1 °F 39.0 °F 29.73 in WNW 4.0 mph 9.0 mph 79% 0.00 in
16:14 45.0 °F 38.9 °F 29.73 in NW 6.0 mph 11.0 mph 79% 0.00 in
16:19 45.1 °F 38.6 °F 29.73 in West 6.0 mph 10.0 mph 78% 0.00 in
16:24 45.0 °F 38.2 °F 29.73 in WNW 9.0 mph 12.0 mph 77% 0.00 in
16:29 44.9 °F 38.1 °F 29.73 in WNW 6.0 mph 12.0 mph 77% 0.00 in
16:34 44.8 °F 38.0 °F 29.74 in WNW 5.0 mph 12.0 mph 77% 0.00 in
16:39 44.7 °F 37.9 °F 29.74 in WNW 5.0 mph 9.0 mph 77% 0.00 in
16:44 44.6 °F 37.8 °F 29.74 in NNW 2.0 mph 11.0 mph 77% 0.00 in
16:49 44.5 °F 37.4 °F 29.74 in West 4.0 mph 8.0 mph 76% 0.00 in
16:54 44.4 °F 37.3 °F 29.74 in WNW 3.0 mph 8.0 mph 76% 0.00 in
16:59 44.4 °F 37.3 °F 29.75 in WNW 4.0 mph 8.0 mph 76% 0.00 in
17:04 44.3 °F 37.2 °F 29.75 in WNW 4.0 mph 8.0 mph 76% 0.00 in
17:09 44.3 °F 37.2 °F 29.75 in WNW 4.0 mph 7.0 mph 76% 0.00 in
17:14 44.2 °F 37.1 °F 29.76 in WNW 4.0 mph 7.0 mph 76% 0.00 in
17:19 44.2 °F 36.8 °F 29.76 in West 2.0 mph 7.0 mph 75% 0.00 in
17:24 44.1 °F 36.7 °F 29.76 in WNW 2.0 mph 10.0 mph 75% 0.00 in
17:29 44.1 °F 36.7 °F 29.76 in WNW 1.0 mph 4.0 mph 75% 0.00 in
17:34 44.0 °F 36.6 °F 29.77 in WNW 2.0 mph 6.0 mph 75% 0.00 in
17:39 43.9 °F 36.5 °F 29.77 in West 7.0 mph 10.0 mph 75% 0.00 in
17:44 43.8 °F 35.4 °F 29.77 in NW 4.0 mph 10.0 mph 72% 0.00 in
17:49 43.9 °F 35.5 °F 29.77 in WNW 4.0 mph 7.0 mph 72% 0.00 in
17:54 43.7 °F 35.3 °F 29.77 in West 4.0 mph 9.0 mph 72% 0.00 in
18:04 43.6 °F 35.2 °F 29.78 in WNW 4.0 mph 7.0 mph 72% 0.00 in
18:09 43.6 °F 35.2 °F 29.78 in WNW 3.0 mph 7.0 mph 72% 0.00 in
18:14 43.6 °F 34.5 °F 29.78 in West 4.0 mph 11.0 mph 70% 0.00 in
18:19 43.6 °F 34.5 °F 29.79 in West 5.0 mph 11.0 mph 70% 0.00 in
18:24 43.6 °F 34.5 °F 29.79 in West 5.0 mph 9.0 mph 70% 0.00 in
18:29 43.5 °F 34.4 °F 29.80 in West 6.0 mph 7.0 mph 70% 0.00 in
18:34 43.4 °F 34.3 °F 29.80 in West 4.0 mph 10.0 mph 70% 0.00 in
18:39 43.4 °F 33.9 °F 29.80 in WNW 5.0 mph 10.0 mph 69% 0.00 in
18:44 43.2 °F 33.3 °F 29.81 in WNW 4.0 mph 9.0 mph 68% 0.00 in
18:49 43.2 °F 33.0 °F 29.80 in NW 2.0 mph 11.0 mph 67% 0.00 in
18:54 43.0 °F 33.2 °F 29.80 in WNW 4.0 mph 7.0 mph 68% 0.00 in
18:59 42.9 °F 32.7 °F 29.80 in WNW 2.0 mph 8.0 mph 67% 0.00 in
19:04 42.8 °F 32.2 °F 29.80 in WNW 4.0 mph 11.0 mph 66% 0.00 in
19:09 42.8 °F 32.2 °F 29.80 in West 4.0 mph 11.0 mph 66% 0.00 in
19:14 42.8 °F 31.8 °F 29.80 in West 4.0 mph 10.0 mph 65% 0.00 in
19:19 42.8 °F 32.2 °F 29.80 in West 4.0 mph 10.0 mph 66% 0.00 in
19:24 42.6 °F 31.7 °F 29.81 in West 3.0 mph 7.0 mph 65% 0.00 in
19:29 42.5 °F 31.9 °F 29.81 in West 4.0 mph 7.0 mph 66% 0.00 in
19:34 42.5 °F 31.9 °F 29.81 in West 4.0 mph 9.0 mph 66% 0.00 in
19:44 42.4 °F 31.5 °F 29.81 in WNW 6.0 mph 14.0 mph 65% 0.00 in
19:49 42.4 °F 31.5 °F 29.82 in WNW 6.0 mph 14.0 mph 65% 0.00 in
19:54 42.5 °F 31.2 °F 29.82 in WNW 6.0 mph 9.0 mph 64% 0.00 in
19:59 42.4 °F 31.5 °F 29.82 in West 2.0 mph 8.0 mph 65% 0.00 in
20:04 42.4 °F 31.5 °F 29.82 in West 3.0 mph 8.0 mph 65% 0.00 in
20:09 42.4 °F 31.5 °F 29.82 in West 4.0 mph 9.0 mph 65% 0.00 in
20:14 42.4 °F 31.5 °F 29.82 in WSW 4.0 mph 10.0 mph 65% 0.00 in
20:19 42.4 °F 31.8 °F 29.83 in WSW 4.0 mph 10.0 mph 66% 0.00 in
20:24 42.3 °F 32.1 °F 29.82 in WSW 3.0 mph 8.0 mph 67% 0.00 in
20:29 42.2 °F 32.0 °F 29.82 in WSW 2.0 mph 7.0 mph 67% 0.00 in
20:34 42.2 °F 32.4 °F 29.82 in WSW 3.0 mph 10.0 mph 68% 0.00 in
20:39 42.1 °F 32.3 °F 29.82 in WSW 3.0 mph 10.0 mph 68% 0.00 in
20:44 42.2 °F 32.4 °F 29.82 in WSW 3.0 mph 7.0 mph 68% 0.00 in
20:49 42.1 °F 32.7 °F 29.82 in WSW 4.0 mph 7.0 mph 69% 0.00 in
20:54 42.1 °F 32.7 °F 29.82 in WSW 4.0 mph 9.0 mph 69% 0.00 in
20:59 42.1 °F 32.7 °F 29.82 in West 2.0 mph 9.0 mph 69% 0.00 in
21:04 42.0 °F 32.9 °F 29.82 in West 5.0 mph 9.0 mph 70% 0.00 in
21:09 42.0 °F 32.9 °F 29.82 in WSW 4.0 mph 9.0 mph 70% 0.00 in
21:14 41.9 °F 33.2 °F 29.82 in WSW 3.0 mph 8.0 mph 71% 0.00 in
21:19 41.7 °F 33.0 °F 29.82 in WSW 2.0 mph 7.0 mph 71% 0.00 in
21:24 41.7 °F 33.0 °F 29.82 in WSW 4.0 mph 7.0 mph 71% 0.00 in
21:29 41.7 °F 33.0 °F 29.82 in SW 6.0 mph 10.0 mph 71% 0.00 in
21:34 41.7 °F 33.3 °F 29.83 in WSW 4.0 mph 10.0 mph 72% 0.00 in
21:39 41.6 °F 32.9 °F 29.83 in West 4.0 mph 9.0 mph 71% 0.00 in
21:44 41.6 °F 32.9 °F 29.83 in West 4.0 mph 8.0 mph 71% 0.00 in
21:49 41.6 °F 33.2 °F 29.83 in West 2.0 mph 9.0 mph 72% 0.00 in
21:54 41.6 °F 32.9 °F 29.83 in West 4.0 mph 11.0 mph 71% 0.00 in
21:59 41.7 °F 33.3 °F 29.83 in West 3.0 mph 13.0 mph 72% 0.00 in
22:04 41.6 °F 33.2 °F 29.83 in West 5.0 mph 13.0 mph 72% 0.00 in
22:09 41.5 °F 33.1 °F 29.83 in West 5.0 mph 14.0 mph 72% 0.00 in
22:14 41.5 °F 33.5 °F 29.83 in West 8.0 mph 11.0 mph 73% 0.00 in
22:19 41.4 °F 33.4 °F 29.83 in NW 13.0 mph 15.0 mph 73% 0.00 in
22:24 41.4 °F 33.4 °F 29.84 in WNW 6.0 mph 15.0 mph 73% 0.01 in
22:34 41.4 °F 34.1 °F 29.84 in West 9.0 mph 18.0 mph 75% 0.01 in
22:39 41.2 °F 33.9 °F 29.85 in West 10.0 mph 20.0 mph 75% 0.01 in
22:44 40.5 °F 33.5 °F 29.86 in WNW 10.0 mph 20.0 mph 76% 0.01 in
22:49 39.2 °F 32.6 °F 29.87 in NNW 9.0 mph 17.0 mph 77% 0.01 in
22:54 38.3 °F 32.7 °F 29.87 in WNW 3.0 mph 10.0 mph 80% 0.01 in
22:59 37.8 °F 32.8 °F 29.87 in WNW 8.0 mph 13.0 mph 82% 0.01 in
23:04 37.5 °F 32.8 °F 29.88 in West 6.0 mph 15.0 mph 83% 0.01 in
23:09 37.4 °F 33.0 °F 29.88 in WNW 7.0 mph 15.0 mph 84% 0.01 in
23:14 37.3 °F 32.9 °F 29.88 in WNW 8.0 mph 16.0 mph 84% 0.01 in
23:19 37.2 °F 32.8 °F 29.88 in WNW 9.0 mph 15.0 mph 84% 0.02 in
23:24 36.9 °F 32.5 °F 29.88 in NW 5.0 mph 20.0 mph 84% 0.01 in
23:29 36.5 °F 32.1 °F 29.88 in NW 6.0 mph 21.0 mph 84% 0.01 in
23:34 36.1 °F 31.7 °F 29.88 in NW 8.0 mph 21.0 mph 84% 0.01 in
23:39 35.9 °F 31.2 °F 29.89 in NNW 5.0 mph 12.0 mph 83% 0.01 in
23:44 35.9 °F 31.2 °F 29.89 in NW 5.0 mph 12.0 mph 83% 0.01 in
23:54 35.9 °F 31.2 °F 29.90 in WNW 7.0 mph 12.0 mph 83% 0.01 in
23:59 35.9 °F 31.2 °F 29.91 in West 10.0 mph 12.0 mph 83% 0.01 in
Buffalo, New York, USA
Compliments of Weather Underground - 2.5 mb